User: anonymous
Location: Unspecified
(0.0000°N, 0.0000°E)
Time: 08:23:26
(UTC+00:00)
Language:

USA 200 - Orbit

View from above orbital plane
View from above orbital plane
View from above satellite
View from above satellite

Ground track
Ground track

The orbit data is extracted from the following two-line orbital elements,

1 32706U 08010A   14264.40444663 -.00000296  00000-0  00000-0 0    06
2 32706  63.1130 115.9600 6919899 267.8857  18.4152  2.00626771    02
Epoch (UTC): 21 September 2014 09:42:24
Eccentricity: 0.6919899
inclination: 63.1130°
perigee height: 1801 km
apogee height: 38552 km
right ascension of ascending node: 115.9600°
argument of perigee: 267.8857°
revolutions per day: 2.00626771
mean anomaly at epoch: 18.4152°
orbit number at epoch: 0

The dashed part of the orbit path shows where the satellite is in the earth's shadow,  

DLR